Weather History for Brady, TX

Change the Weather History Date:

Wednesday, April 16, 2014

  Actual Average (KJCT) Record (KJCT)
Temperature  
Mean Temperature 57 °F -  
Max Temperature 73 °F 77 °F 99 °F (2006)
Min Temperature 41 °F 51 °F 34 °F (1999)
Degree Days  
Heating Degree Days 8    
Growing Degree Days 7 (Base 50)    
Moisture  
Dew Point 29 °F    
Average Humidity 37    
Maximum Humidity 54    
Minimum Humidity 22    
Precipitation  
Precipitation 0.00 in - - ()
Sea Level Pressure  
Sea Level Pressure 29.97 in    
Wind  
Wind Speed 11 mph (SSE)    
Max Wind Speed 21 mph    
Max Gust Speed 26 mph    
Visibility 10 miles    
Events      
Averages and records for this station are not official NWS values.
T = Trace of Precipitation, MM = Missing Value Source: NWS Daily Summary

Daily Weather History Graph

Daily Weather History Graph

Search for Another Location

Airport:

Trip Planner

Search our weather history database for the weather conditions in past years. The results will help you decide how hot, cold, wet, or windy it might be!

Date:

Astronomy

Apr. 16, 2014 Rise Set
Actual Time 7:08 AM CDT 8:06 PM CDT
Civil Twilight 6:43 AM CDT 8:31 PM CDT
Nautical Twilight 6:13 AM CDT 9:00 PM CDT
Astronomical Twilight 5:43 AM CDT 9:31 PM CDT
Moon 9:46 PM CDT (4/16) 8:00 AM CDT (4/16)
Length of Visible Light 13h 48m
Length of Day
12h 58m
Full, 98% of the Moon is Illuminated
Apr 16
Full
Apr 22
Last Quarter
Apr 29
New
May 6
First Quarter
May 14
Full

Hourly Weather History & Observations

Time (CDT) Temp. Windchill Dew Point Humidity Pressure Visibility Wind Dir Wind Speed Gust Speed Precip Events Conditions
12:55 AM 46.4 °F 42.4 °F 21.2 °F 37% 30.07 in - SE 8.1 mph - N/A   Unknown
1:15 AM 44.6 °F 40.7 °F 21.2 °F 39% 30.07 in - SE 6.9 mph - N/A   Unknown
1:35 AM 44.6 °F 40.7 °F 21.2 °F 39% 30.06 in - SE 6.9 mph - N/A   Unknown
1:55 AM 44.6 °F 39.7 °F 21.2 °F 39% 30.06 in - SE 9.2 mph - N/A   Unknown
2:15 AM 44.6 °F 40.2 °F 21.2 °F 39% 30.05 in - SSE 8.1 mph - N/A   Unknown
2:35 AM 44.6 °F 40.2 °F 21.2 °F 39% 30.05 in - SSE 8.1 mph - N/A   Unknown
2:55 AM 44.6 °F 40.2 °F 21.2 °F 39% 30.04 in - SE 8.1 mph - N/A   Unknown
3:15 AM 44.6 °F 40.7 °F 21.2 °F 39% 30.03 in - SE 6.9 mph - N/A   Unknown
3:35 AM 42.8 °F 39.3 °F 21.2 °F 42% 30.03 in - SE 5.8 mph - N/A   Unknown
3:55 AM 41.0 °F 36.4 °F 21.2 °F 45% 30.02 in - SE 6.9 mph - N/A   Unknown
4:15 AM 42.8 °F 39.3 °F 21.2 °F 42% 30.02 in - SSE 5.8 mph - N/A   Unknown
4:35 AM 42.8 °F 39.3 °F 21.2 °F 42% 30.01 in - SSE 5.8 mph - N/A   Unknown
4:55 AM 42.8 °F 38.0 °F 21.2 °F 42% 30.01 in - SSE 8.1 mph - N/A   Unknown
5:15 AM 42.8 °F 37.0 °F 21.2 °F 42% 30.01 in - SSE 10.4 mph - N/A   Unknown
5:35 AM 42.8 °F 38.0 °F 21.2 °F 42% 30.01 in - SSE 8.1 mph - N/A   Unknown
5:55 AM 42.8 °F 36.2 °F 21.2 °F 42% 30.00 in - SSE 12.7 mph - N/A   Unknown
6:15 AM 42.8 °F 38.0 °F 21.2 °F 42% 30.02 in - South 8.1 mph - N/A   Unknown
6:35 AM 42.8 °F 37.0 °F 23.0 °F 46% 30.02 in - SSE 10.4 mph - N/A   Unknown
6:55 AM 42.8 °F 37.0 °F 23.0 °F 46% 30.02 in - SSE 10.4 mph - N/A   Unknown
7:15 AM 42.8 °F 36.6 °F 23.0 °F 46% 30.02 in - SSE 11.5 mph - N/A   Unknown
7:35 AM 44.6 °F 38.8 °F 24.8 °F 46% 30.02 in - SSE 11.5 mph - N/A   Unknown
7:55 AM 44.6 °F 38.1 °F 24.8 °F 46% 30.02 in - SSE 13.8 mph - N/A   Unknown
8:15 AM 44.6 °F 38.1 °F 26.6 °F 49% 30.02 in - SE 13.8 mph - N/A   Unknown
8:35 AM 46.4 °F 39.2 °F 28.4 °F 50% 30.02 in - SSE 18.4 mph - N/A   Unknown
8:55 AM 48.2 °F - 28.4 °F 46% 30.02 in - SSE 18.4 mph - N/A   Unknown
9:15 AM 48.2 °F - 28.4 °F 46% 30.02 in - SSE 16.1 mph - N/A   Unknown
9:35 AM 51.8 °F - 30.2 °F 44% 30.02 in - South 15.0 mph - N/A   Unknown
9:55 AM 53.6 °F - 30.2 °F 41% 30.02 in - SSE 19.6 mph - N/A   Unknown
10:15 AM 55.4 °F - 28.4 °F 36% 30.02 in - SSE 17.3 mph - N/A   Unknown
10:35 AM 57.2 °F - 30.2 °F 36% 30.03 in - SSE 16.1 mph - N/A   Unknown
10:55 AM 57.2 °F - 28.4 °F 33% 30.02 in - SSE 20.7 mph - N/A   Unknown
11:15 AM 59.0 °F - 30.2 °F 34% 30.02 in - SSE 20.7 mph - N/A   Unknown
11:35 AM 60.8 °F - 30.2 °F 31% 30.02 in - South 16.1 mph - N/A   Unknown
11:55 AM 60.8 °F - 30.2 °F 31% 30.01 in - SSE 15.0 mph - N/A   Unknown
12:15 PM 60.8 °F - 30.2 °F 31% 30.01 in - SSE 17.3 mph - N/A   Unknown
12:35 PM 62.6 °F - 32.0 °F 32% 29.99 in - South 15.0 mph - N/A   Unknown
1:15 PM 66.2 °F - 30.2 °F 26% 29.97 in - SSE 15.0 mph - N/A   Unknown
1:35 PM 66.2 °F - 32.0 °F 28% 29.96 in - South 13.8 mph - N/A   Unknown
1:55 PM 68.0 °F - 33.8 °F 28% 29.95 in - SSE 13.8 mph - N/A   Unknown
2:15 PM 69.8 °F - 30.2 °F 23% 29.94 in - SSE 10.4 mph 26.5 mph N/A   Unknown
2:35 PM 71.6 °F - 32.0 °F 23% 29.93 in - SE 13.8 mph - N/A   Unknown
3:15 PM 71.6 °F - 32.0 °F 23% 29.91 in - SE 12.7 mph - N/A   Unknown
3:55 PM 73.4 °F - 32.0 °F 22% 29.90 in 10.0 mi South 13.8 mph - N/A   Unknown
4:15 PM 71.6 °F - 32.0 °F 23% 29.89 in - SSE 13.8 mph - N/A   Unknown
4:35 PM 71.6 °F - 32.0 °F 23% 29.88 in - SSE 17.3 mph - N/A   Unknown
5:35 PM 71.6 °F - 32.0 °F 23% 29.86 in - SE 16.1 mph - N/A   Unknown
6:15 PM 71.6 °F - 33.8 °F 25% 29.86 in 10.0 mi SSE 13.8 mph - N/A   Clear
6:35 PM 71.6 °F - 33.8 °F 25% 29.86 in 10.0 mi SSE 15.0 mph - N/A   Clear
6:55 PM 69.8 °F - 33.8 °F 27% 29.86 in 10.0 mi SSE 15.0 mph - N/A   Clear
7:15 PM 69.8 °F - 33.8 °F 27% 29.86 in 10.0 mi SSE 17.3 mph - N/A   Clear
7:35 PM 68.0 °F - 33.8 °F 28% 29.86 in 10.0 mi SSE 12.7 mph - N/A   Clear
7:55 PM 66.2 °F - 35.6 °F 32% 29.86 in 10.0 mi SSE 15.0 mph - N/A   Clear
8:15 PM 66.2 °F - 35.6 °F 32% 29.87 in 10.0 mi SSE 12.7 mph - N/A   Clear
8:35 PM 64.4 °F - 37.4 °F 37% 29.88 in 10.0 mi SSE 11.5 mph - N/A   Clear
8:55 PM 62.6 °F - 37.4 °F 39% 29.89 in 10.0 mi SE 6.9 mph - N/A   Clear
9:15 PM 62.6 °F - 37.4 °F 39% 29.90 in 10.0 mi SE 8.1 mph - N/A   Clear
9:35 PM 60.8 °F - 37.4 °F 42% 29.90 in 10.0 mi SE 8.1 mph - N/A   Clear
9:55 PM 60.8 °F - 37.4 °F 42% 29.91 in 10.0 mi ESE 6.9 mph - N/A   Clear
10:15 PM 59.0 °F - 37.4 °F 45% 29.92 in 10.0 mi SE 5.8 mph - N/A   Clear
10:35 PM 59.0 °F - 37.4 °F 45% 29.92 in 10.0 mi ESE 4.6 mph - N/A   Clear
10:55 PM 57.2 °F - 37.4 °F 48% 29.92 in 10.0 mi ESE 5.8 mph - N/A   Clear
11:15 PM 57.2 °F - 37.4 °F 48% 29.93 in 10.0 mi ESE 5.8 mph - N/A   Clear
11:35 PM 57.2 °F - 37.4 °F 48% 29.92 in 10.0 mi SE 5.8 mph - N/A   Clear
11:55 PM 55.4 °F - 39.2 °F 54% 29.92 in 10.0 mi ESE 5.8 mph - N/A   Clear